Overview Statistics Trail Chart Weather Telemetry Raw packets
 

This is the latest recevied weather packets stored in our database for station/object K1BES. If no packets are shown the sender has not sent any weather packets the latest 10 day(s).

<< 15 16 17 18 19 20 21 >>
Time Temp. Humidity Pressure Rain* Wind** Luminosity Snow
1788541289 33.89° C 67% 1018 hPa 0 mm - 1015 W/m² -
1788540988 33.89° C 70% 1018.1 hPa 0 mm - 840 W/m² -
1788540688 33.89° C 68% 1018.2 hPa 0 mm - 1013 W/m² -
1788540387 33.89° C 71% 1017.9 hPa 0 mm - 1056 W/m² -
1788540083 33.89° C 69% 1018.2 hPa 0 mm - 1047 W/m² -
1788539779 33.89° C 68% 1018.2 hPa 0 mm - 1015 W/m² -
1788539474 33.33° C 71% 1018.3 hPa 0 mm - 991 W/m² -
1788539168 33.33° C 72% 1018.4 hPa 0 mm - 980 W/m² -
1788538863 33.33° C 71% 1018.6 hPa 0 mm - 980 W/m² -
1788538558 32.78° C 74% 1018.6 hPa 0 mm - 990 W/m² -
1788538253 32.22° C 76% 1018.5 hPa 0 mm - 1027 W/m² -
1788537948 31.67° C 78% 1018.5 hPa 0 mm - 1040 W/m² -
1788537644 31.11° C 77% 1018.3 hPa 0 mm - 485 W/m² -
1788537343 31.67° C 76% 1018.4 hPa 0 mm - 324 W/m² -
1788537038 32.22° C 76% 1018.4 hPa 0 mm - 347 W/m² -
1788536746 32.78° C 75% 1018.6 hPa 0 mm - 379 W/m² -
1788536427 32.78° C 79% 1018.5 hPa 0 mm - 767 W/m² -
1788536126 32.78° C 79% 1018.4 hPa 0 mm - 878 W/m² -
1788535823 32.78° C 78% 1018.5 hPa 0 mm - 909 W/m² -
1788535518 32.22° C 81% 1018.5 hPa 0 mm - 843 W/m² -
1788535222 31.67° C 81% 1018.2 hPa 0 mm - 1040 W/m² -
1788534908 31.67° C 82% 1018.3 hPa 0 mm - 923 W/m² -
1788534602 32.22° C 81% 1018.3 hPa 0 mm - 914 W/m² -
1788534297 32.22° C 84% 1018.2 hPa 0 mm - 835 W/m² -
1788533996 31.67° C 83% 1018.1 hPa 0 mm - 823 W/m² -

* Rain latest hour (hover to see other rain measurements)
** Current wind speed in m/s (hover to see current wind gust speed)